This is the latest recevied weather packets stored in our database for station/object KC3ROS. If no packets are shown the sender has not sent any weather packets the latest 10 day(s).
| Time | Temp. | Humidity | Pressure | Rain* | Wind** | Luminosity | Snow |
|---|---|---|---|---|---|---|---|
| 1777572237 | 7.78° C | 78% | 1012.3 hPa | 0 mm | - | 260 W/m² | - |
| 1777571933 | 7.78° C | 77% | 1012.4 hPa | 0 mm | - | 211 W/m² | - |
| 1777571628 | 7.78° C | 78% | 1012.2 hPa | 0 mm | - | 159 W/m² | - |
| 1777571326 | 7.78° C | 79% | 1012.2 hPa | 0 mm | - | 216 W/m² | - |
| 1777571021 | 7.78° C | 80% | 1012.2 hPa | 0 mm | - | 324 W/m² | - |
| 1777570718 | 7.78° C | 81% | 1012.2 hPa | 0 mm | - | 246 W/m² | - |
| 1777570414 | 7.78° C | 81% | 1012.4 hPa | 0 mm | - | 214 W/m² | - |
| 1777570110 | 7.78° C | 84% | 1012.2 hPa | 0 mm | - | 293 W/m² | - |
| 1777569806 | 7.22° C | 84% | 1012.3 hPa | 0 mm | - | 290 W/m² | - |
| 1777569502 | 6.67° C | 86% | 1012.2 hPa | 0 mm | - | 211 W/m² | - |
| 1777569199 | 6.67° C | 84% | 1012.5 hPa | 0 mm | - | 124 W/m² | - |
| 1777568895 | 6.67° C | 85% | 1012.3 hPa | 0 mm | - | 93 W/m² | - |
| 1777568592 | 6.67° C | 87% | 1012.4 hPa | 0 mm | - | 93 W/m² | - |
| 1777568290 | 6.67° C | 87% | 1012.3 hPa | 0 mm | - | 86 W/m² | - |
| 1777567986 | 6.67° C | 86% | 1012.3 hPa | 0 mm | - | 65 W/m² | - |
| 1777567683 | 7.22° C | 87% | 1012.3 hPa | 0 mm | - | 66 W/m² | - |
| 1777567379 | 7.22° C | 86% | 1012.3 hPa | 0 mm | - | 79 W/m² | - |
| 1777567077 | 7.22° C | 85% | 1012.2 hPa | 0 mm | - | 105 W/m² | - |
| 1777566775 | 7.22° C | 86% | 1012.2 hPa | 0 mm | - | 188 W/m² | - |
| 1777566473 | 6.67° C | 85% | 1012 hPa | 0 mm | - | 279 W/m² | - |
| 1777566170 | 6.67° C | 85% | 1012.3 hPa | 0 mm | - | 121 W/m² | - |
| 1777565865 | 7.22° C | 83% | 1011.9 hPa | 0 mm | - | 141 W/m² | - |
| 1777565556 | 7.22° C | 84% | 1012.1 hPa | 0 mm | - | 267 W/m² | - |
| 1777565253 | 6.11° C | 88% | 1012.1 hPa | 0 mm | - | 377 W/m² | - |
| 1777564949 | 6.11° C | 87% | 1012.2 hPa | 0 mm | - | 179 W/m² | - |
* Rain latest hour (hover to see other rain measurements)
** Current wind speed in m/s (hover to see current wind gust speed)